| time (UTC) | temp F | wind direction | speed MPH | gust MPH | rain 1hr in | rain 24hr in | rain mn in | humidity % | barometer mb |
| 20260505090100 | 61 | 131 | 11.0 | 15.0 | 0.00 | 0.12 | 0.12 | 82 | 1013.5 |
| 20260505084552 | 60 | 113 | 10.0 | 14.0 | 0.01 | 0.12 | 0.12 | 83 | 1013.5 |
| 20260505083050 | 59 | 128 | 11.0 | 16.0 | 0.04 | 0.12 | 0.12 | 84 | 1013.3 |
| 20260505081547 | 59 | 133 | 8.0 | 12.0 | 0.08 | 0.12 | 0.12 | 85 | 1013.5 |
| 20260505080043 | 58 | 135 | 10.0 | 14.0 | 0.11 | 0.12 | 0.12 | 84 | 1012.9 |
| 20260505074540 | 58 | 183 | 6.0 | 10.0 | 0.11 | 0.11 | 0.11 | 83 | 1013.4 |
| 20260505073039 | 58 | 160 | 6.0 | 10.0 | 0.08 | 0.08 | 0.08 | 81 | 1013.7 |
| 20260505071533 | 59 | 190 | 8.0 | 10.0 | 0.04 | 0.04 | 0.04 | 78 | 1013.7 |
| 20260505070031 | 61 | 181 | 7.0 | 11.0 | 0.01 | 0.01 | 0.01 | 74 | 1013.5 |
| 20260505064531 | 61 | 186 | 7.0 | 12.0 | 0.00 | 0.00 | 0.00 | 74 | 1013.4 |
| 20260505063029 | 61 | 143 | 5.0 | 11.0 | 0.00 | 0.00 | 0.00 | 74 | 1013.2 |
| 20260505061530 | 61 | 121 | 4.0 | 7.0 | 0.00 | 0.00 | 0.00 | 74 | 1013.0 |
| 20260505060032 | 60 | 152 | 4.0 | 7.0 | 0.00 | 0.00 | 0.00 | 74 | 1013.0 |
| 20260505054536 | 60 | 189 | 4.0 | 7.0 | 0.00 | 0.00 | 0.00 | 74 | 1013.2 |
| 20260505053027 | 60 | 170 | 8.0 | 13.0 | 0.00 | 0.00 | 0.00 | 73 | 1013.2 |
| 20260505051522 | 60 | 179 | 7.0 | 12.0 | 0.00 | 0.00 | 0.00 | 72 | 1013.2 |
| 20260505041508 | 63 | 189 | 6.0 | 8.0 | 0.00 | 0.00 | 0.00 | 62 | 1012.8 |
| 20260505040006 | 64 | 181 | 7.0 | 10.0 | 0.00 | 0.00 | 0.00 | 57 | 1012.8 |
| 20260505034505 | 64 | 199 | 4.0 | 8.0 | 0.00 | 0.00 | 0.00 | 56 | 1012.8 |
| 20260505033005 | 63 | 212 | 5.0 | 8.0 | 0.00 | 0.00 | 0.00 | 58 | 1013.0 |
| 20260505031600 | 64 | 195 | 4.0 | 6.0 | 0.00 | 0.00 | 0.00 | 58 | 1013.1 |
| 20260505030100 | 65 | 174 | 4.0 | 7.0 | 0.00 | 0.00 | 0.00 | 57 | 1013.0 |
| 20260505024609 | 66 | 226 | 4.0 | 10.0 | 0.00 | 0.00 | 0.00 | 53 | 1013.0 |
| 20260505023106 | 66 | 204 | 6.0 | 12.0 | 0.00 | 0.00 | 0.00 | 52 | 1013.2 |
| 20260505021556 | 66 | 222 | 6.0 | 9.0 | 0.00 | 0.00 | 0.00 | 53 | 1013.2 |
| 20260505020054 | 66 | 215 | 5.0 | 10.0 | 0.00 | 0.00 | 0.00 | 53 | 1013.4 |
| 20260505014553 | 66 | 210 | 5.0 | 11.0 | 0.00 | 0.00 | 0.00 | 53 | 1013.4 |
| 20260505013047 | 65 | 208 | 4.0 | 7.0 | 0.00 | 0.00 | 0.00 | 56 | 1013.5 |
| 20260505011551 | 64 | 223 | 5.0 | 7.0 | 0.00 | 0.00 | 0.00 | 59 | 1013.5 |
| 20260505010044 | 64 | 197 | 4.0 | 8.0 | 0.00 | 0.00 | 0.00 | 58 | 1013.7 |
| 20260505004548 | 66 | 187 | 7.0 | 10.0 | 0.00 | 0.00 | 0.00 | 54 | 1014.0 |
| 20260505003009 | 66 | 210 | 4.0 | 11.0 | 0.00 | 0.00 | 0.00 | 53 | 1014.1 |
| 20260505001509 | 66 | 214 | 4.0 | 9.0 | 0.00 | 0.00 | 0.00 | 54 | 1014.2 |
| 20260505000005 | 66 | 233 | 5.0 | 10.0 | 0.00 | 0.00 | 0.00 | 54 | 1014.4 |
| 20260504234501 | 66 | 211 | 3.0 | 8.0 | 0.00 | 0.00 | 0.00 | 57 | 1014.6 |
| 20260504233001 | 65 | 216 | 4.0 | 6.0 | 0.00 | 0.00 | 0.00 | 60 | 1014.7 |
| 20260504231606 | 65 | 200 | 5.0 | 7.0 | 0.00 | 0.00 | 0.00 | 60 | 1014.8 |
| 20260504230057 | 65 | 209 | 1.0 | 3.0 | 0.00 | 0.00 | 0.00 | 61 | 1014.9 |
| 20260504224603 | 66 | 209 | 2.0 | 6.0 | 0.00 | 0.00 | 0.00 | 58 | 1015.1 |
| 20260504223051 | 67 | 226 | 4.0 | 9.0 | 0.00 | 0.00 | 0.00 | 57 | 1015.1 |
| 20260504221601 | 67 | 212 | 6.0 | 12.0 | 0.00 | 0.00 | 0.00 | 56 | 1015.1 |
| 20260504220053 | 67 | 230 | 7.0 | 10.0 | 0.00 | 0.00 | 0.00 | 57 | 1015.1 |
| 20260504214551 | 68 | 223 | 9.0 | 15.0 | 0.00 | 0.00 | 0.00 | 57 | 1015.2 |
| 20260504213052 | 68 | 235 | 8.0 | 14.0 | 0.00 | 0.00 | 0.00 | 57 | 1015.3 |
| 20260504211543 | 69 | 218 | 11.0 | 18.0 | 0.00 | 0.00 | 0.00 | 58 | 1015.4 |
| 20260504210047 | 67 | 215 | 5.0 | 9.0 | 0.00 | 0.00 | 0.00 | 69 | 1015.3 |
| 20260504204611 | 67 | 206 | 4.0 | 6.0 | 0.00 | 0.00 | 0.00 | 72 | 1015.2 |
| 20260504203034 | 67 | 193 | 3.0 | 5.0 | 0.00 | 0.00 | 0.00 | 73 | 1015.1 |
| 20260504201532 | 67 | 185 | 3.0 | 4.0 | 0.00 | 0.00 | 0.00 | 73 | 1015.0 |
| 20260504200037 | 67 | 138 | 3.0 | 5.0 | 0.00 | 0.00 | 0.00 | 72 | 1015.0 |
| 20260504194530 | 67 | 118 | 3.0 | 7.0 | 0.00 | 0.00 | 0.00 | 71 | 1015.0 |
| 20260504193031 | 67 | 132 | 4.0 | 8.0 | 0.00 | 0.00 | 0.00 | 71 | 1015.0 |
| 20260504191529 | 67 | 129 | 4.0 | 8.0 | 0.00 | 0.00 | 0.00 | 71 | 1014.9 |
| 20260504190034 | 67 | 122 | 4.0 | 10.0 | 0.00 | 0.00 | 0.00 | 70 | 1014.8 |
| 20260504184525 | 67 | 131 | 7.0 | 11.0 | 0.00 | 0.00 | 0.00 | 70 | 1014.8 |
| 20260504183028 | 67 | 142 | 7.0 | 10.0 | 0.00 | 0.00 | 0.00 | 71 | 1014.8 |
| 20260504181524 | 67 | 127 | 7.0 | 11.0 | 0.00 | 0.00 | 0.00 | 72 | 1014.7 |
| 20260504180025 | 67 | 134 | 9.0 | 14.0 | 0.00 | 0.00 | 0.00 | 72 | 1014.8 |
| 20260504174522 | 67 | 139 | 8.0 | 15.0 | 0.00 | 0.00 | 0.00 | 73 | 1014.8 |
| 20260504173020 | 67 | 132 | 8.0 | 13.0 | 0.00 | 0.00 | 0.00 | 74 | 1014.9 |
| 20260504171535 | 67 | 133 | 9.0 | 13.0 | 0.00 | 0.00 | 0.00 | 73 | 1014.9 |